Time,TemperatureF,DewpointF,PressureIn,WindDirection,WindDirectionDegrees,WindSpeedMPH,WindSpeedGustMPH,Humidity,HourlyPrecipIn,Conditions,Clouds,dailyrainin,SoftwareType,DateUTC
2013-10-24 00:12:00,53.0,53.0,-100.00,East,84,-999.0,0.0,100,-99.99,,,-99.99,,2013-10-24 07:12:00,
2013-10-24 00:21:00,53.0,53.0,-100.00,East,84,-999.0,0.0,100,-99.99,,,-99.99,,2013-10-24 07:21:00,
2013-10-24 00:42:00,53.0,53.0,-100.00,East,95,-999.0,0.0,100,-99.99,,,-99.99,,2013-10-24 07:42:00,
2013-10-24 00:52:00,53.0,53.0,-100.00,East,95,-999.0,2.0,100,-99.99,,,-99.99,,2013-10-24 07:52:00,
2013-10-24 01:11:00,53.0,53.0,-100.00,ESE,113,-999.0,2.0,100,-99.99,,,-99.99,,2013-10-24 08:11:00,
2013-10-24 01:21:00,53.0,53.0,-100.00,ESE,113,-999.0,3.0,100,-99.99,,,-99.99,,2013-10-24 08:21:00,
2013-10-24 01:42:00,53.0,53.0,-100.00,SE,145,-999.0,3.0,100,-99.99,,,-99.99,,2013-10-24 08:42:00,
2013-10-24 01:53:00,53.0,53.0,-100.00,SE,145,-999.0,2.0,100,-99.99,,,-99.99,,2013-10-24 08:53:00,
2013-10-24 02:11:00,53.0,53.0,-100.00,ESE,123,-999.0,2.0,100,-99.99,,,-99.99,,2013-10-24 09:11:00,
2013-10-24 02:22:00,53.0,53.0,-100.00,ESE,123,-999.0,0.0,100,-99.99,,,-99.99,,2013-10-24 09:22:00,
2013-10-24 02:43:00,53.0,53.0,-100.00,SSE,159,-999.0,0.0,100,-99.99,,,-99.99,,2013-10-24 09:43:00,
2013-10-24 02:53:00,53.0,53.0,-100.00,SSE,159,-999.0,0.0,100,-99.99,,,-99.99,,2013-10-24 09:53:00,
2013-10-24 03:12:00,53.0,53.0,-100.00,SSE,149,-999.0,0.0,100,-99.99,,,-99.99,,2013-10-24 10:12:00,
2013-10-24 03:23:00,53.0,53.0,-100.00,SSE,149,-999.0,0.0,100,-99.99,,,-99.99,,2013-10-24 10:23:00,
2013-10-24 03:42:00,53.0,53.0,-100.00,South,177,-999.0,0.0,100,-99.99,,,-99.99,,2013-10-24 10:42:00,
2013-10-24 03:53:00,53.0,53.0,-100.00,South,177,-999.0,3.0,100,-99.99,,,-99.99,,2013-10-24 10:53:00,
2013-10-24 04:12:00,52.0,52.0,-100.00,SE,125,-999.0,3.0,100,-99.99,,,-99.99,,2013-10-24 11:12:00,
2013-10-24 04:22:00,52.0,52.0,-100.00,SE,125,-999.0,5.0,100,-99.99,,,-99.99,,2013-10-24 11:22:00,
2013-10-24 04:42:00,52.0,52.0,-100.00,ENE,60,-999.0,5.0,100,-99.99,,,-99.99,,2013-10-24 11:42:00,
2013-10-24 04:53:00,52.0,52.0,-100.00,ENE,60,-999.0,1.0,100,-99.99,,,-99.99,,2013-10-24 11:53:00,
2013-10-24 05:12:00,52.0,52.0,-100.00,NNE,29,-999.0,1.0,100,-99.99,,,-99.99,,2013-10-24 12:12:00,
2013-10-24 05:22:00,52.0,52.0,-100.00,NNE,29,-999.0,4.0,100,-99.99,,,-99.99,,2013-10-24 12:22:00,
2013-10-24 05:42:00,52.0,52.0,-100.00,SSE,161,-999.0,4.0,100,-99.99,,,-99.99,,2013-10-24 12:42:00,
2013-10-24 05:52:00,52.0,52.0,-100.00,SSE,161,-999.0,2.0,100,-99.99,,,-99.99,,2013-10-24 12:52:00,
2013-10-24 06:11:00,52.0,52.0,-100.00,SSE,156,-999.0,2.0,100,-99.99,,,-99.99,,2013-10-24 13:11:00,
2013-10-24 06:22:00,52.0,52.0,-100.00,SSE,156,-999.0,2.0,100,-99.99,,,-99.99,,2013-10-24 13:22:00,
2013-10-24 06:42:00,52.0,52.0,-100.00,SSE,156,-999.0,2.0,100,-99.99,,,-99.99,,2013-10-24 13:42:00,
2013-10-24 06:52:00,52.0,52.0,-100.00,SSE,156,-999.0,2.0,100,-99.99,,,-99.99,,2013-10-24 13:52:00,
2013-10-24 07:11:00,52.0,52.0,-100.00,NE,51,-999.0,1.0,100,-99.99,,,-99.99,,2013-10-24 14:11:00,
2013-10-24 07:21:00,52.0,52.0,-100.00,NE,51,-999.0,1.0,100,-99.99,,,-99.99,,2013-10-24 14:21:00,
2013-10-24 07:42:00,52.0,52.0,-100.00,SSW,205,-999.0,1.0,100,-99.99,,,-99.99,,2013-10-24 14:42:00,
2013-10-24 07:52:00,52.0,52.0,-100.00,SSW,205,-999.0,1.0,100,-99.99,,,-99.99,,2013-10-24 14:52:00,
2013-10-24 08:11:00,52.0,52.0,-100.00,SSE,166,-999.0,0.0,100,-99.99,,,-99.99,,2013-10-24 15:11:00,
2013-10-24 08:21:00,52.0,52.0,-100.00,SSE,166,-999.0,0.0,100,-99.99,,,-99.99,,2013-10-24 15:21:00,
2013-10-24 08:43:00,53.0,53.0,-100.00,South,171,-999.0,0.0,100,-99.99,,,-99.99,,2013-10-24 15:43:00,
2013-10-24 08:53:00,53.0,53.0,-100.00,South,171,-999.0,0.0,100,-99.99,,,-99.99,,2013-10-24 15:53:00,
2013-10-24 09:12:00,53.0,53.0,-100.00,SSE,160,-999.0,-999.0,100,-99.99,,,-99.99,,2013-10-24 16:12:00,
2013-10-24 09:23:00,53.0,53.0,-100.00,SSE,160,-999.0,2.0,100,-99.99,,,-99.99,,2013-10-24 16:23:00,
2013-10-24 09:40:00,55.0,53.0,-100.00,WNW,299,-999.0,2.0,93,-99.99,,,-99.99,,2013-10-24 16:40:00,
2013-10-24 09:42:00,54.0,53.0,-100.00,South,182,-999.0,2.0,97,-99.99,,,-99.99,,2013-10-24 16:42:00,
2013-10-24 09:53:00,54.0,53.0,-100.00,South,182,-999.0,2.0,97,-99.99,,,-99.99,,2013-10-24 16:53:00,
2013-10-24 10:12:00,55.0,53.0,-100.00,WNW,299,-999.0,2.0,93,-99.99,,,-99.99,,2013-10-24 17:12:00,
2013-10-24 10:22:00,55.0,53.0,-100.00,WNW,299,-999.0,2.0,93,-99.99,,,-99.99,,2013-10-24 17:22:00,
2013-10-24 10:34:00,55.0,53.0,-100.00,WNW,299,-999.0,2.0,93,-99.99,,,-99.99,,2013-10-24 17:34:00,
2013-10-24 11:42:00,64.0,55.0,-100.00,SW,215,-999.0,7.0,72,-99.99,,,-99.99,,2013-10-24 18:42:00,
2013-10-24 11:53:00,64.0,55.0,-100.00,SW,215,-999.0,7.0,72,-99.99,,,-99.99,,2013-10-24 18:53:00,
2013-10-24 12:43:00,67.0,56.0,-100.00,SSW,203,-999.0,8.0,68,-99.99,,,-99.99,,2013-10-24 19:43:00,
2013-10-24 12:53:00,67.0,56.0,-100.00,SSW,203,-999.0,8.0,68,-99.99,,,-99.99,,2013-10-24 19:53:00,
2013-10-24 13:11:00,67.0,56.0,-100.00,South,180,-999.0,8.0,69,-99.99,,,-99.99,,2013-10-24 20:11:00,
2013-10-24 13:22:00,67.0,56.0,-100.00,South,180,-999.0,8.0,69,-99.99,,,-99.99,,2013-10-24 20:22:00,
2013-10-24 13:42:00,67.0,56.0,-100.00,South,175,-999.0,8.0,68,-99.99,,,-99.99,,2013-10-24 20:42:00,
2013-10-24 13:53:00,67.0,56.0,-100.00,South,175,-999.0,8.0,68,-99.99,,,-99.99,,2013-10-24 20:53:00,
2013-10-24 14:12:00,66.0,56.0,-100.00,West,273,-999.0,8.0,70,-99.99,,,-99.99,,2013-10-24 21:12:00,
2013-10-24 14:22:00,66.0,56.0,-100.00,West,273,-999.0,8.0,70,-99.99,,,-99.99,,2013-10-24 21:22:00,
2013-10-24 14:43:00,65.0,56.0,-100.00,WSW,245,-999.0,9.0,74,-99.99,,,-99.99,,2013-10-24 21:43:00,
2013-10-24 14:54:00,65.0,56.0,-100.00,WSW,245,-999.0,9.0,74,-99.99,,,-99.99,,2013-10-24 21:54:00,
2013-10-24 15:13:00,63.0,55.0,-100.00,WSW,242,-999.0,10.0,76,-99.99,,,-99.99,,2013-10-24 22:13:00,
2013-10-24 15:24:00,63.0,55.0,-100.00,WSW,242,-999.0,10.0,76,-99.99,,,-99.99,,2013-10-24 22:24:00,
2013-10-24 15:43:00,63.0,56.0,-100.00,WSW,255,-999.0,9.0,77,-99.99,,,-99.99,,2013-10-24 22:43:00,
2013-10-24 15:54:00,63.0,56.0,-100.00,WSW,255,-999.0,9.0,77,-99.99,,,-99.99,,2013-10-24 22:54:00,
2013-10-24 16:12:00,63.0,57.0,-100.00,SW,220,-999.0,9.0,81,-99.99,,,-99.99,,2013-10-24 23:12:00,
2013-10-24 16:22:00,63.0,57.0,-100.00,SW,220,-999.0,-999.0,81,-99.99,,,-99.99,,2013-10-24 23:22:00,
2013-10-24 16:40:00,61.0,56.0,-100.00,SSW,213,-999.0,8.0,84,-99.99,,,-99.99,,2013-10-24 23:40:00,
2013-10-24 17:12:00,61.0,56.0,-100.00,SSW,213,-999.0,8.0,84,-99.99,,,-99.99,,2013-10-25 00:12:00,
2013-10-24 17:21:00,61.0,56.0,-100.00,SSW,213,-999.0,8.0,84,-99.99,,,-99.99,,2013-10-25 00:21:00,
2013-10-24 17:32:00,61.0,56.0,-100.00,SSW,213,-999.0,8.0,84,-99.99,,,-99.99,,2013-10-25 00:32:00,
2013-10-24 18:11:00,56.0,55.0,-100.00,WSW,242,-999.0,6.0,95,-99.99,,,-99.99,,2013-10-25 01:11:00,
2013-10-24 18:42:00,53.0,53.0,-100.00,West,262,-999.0,1.0,100,-99.99,,,-99.99,,2013-10-25 01:42:00,
2013-10-24 18:53:00,53.0,53.0,-100.00,West,262,-999.0,1.0,100,-99.99,,,-99.99,,2013-10-25 01:53:00,
2013-10-24 19:12:00,51.0,51.0,-100.00,NW,310,-999.0,0.0,100,-99.99,,,-99.99,,2013-10-25 02:12:00,
2013-10-24 19:22:00,51.0,51.0,-100.00,NW,310,-999.0,0.0,100,-99.99,,,-99.99,,2013-10-25 02:22:00,
2013-10-24 19:42:00,51.0,51.0,-100.00,North,359,-999.0,0.0,100,-99.99,,,-99.99,,2013-10-25 02:42:00,
2013-10-24 19:52:00,51.0,51.0,-100.00,North,359,-999.0,0.0,100,-99.99,,,-99.99,,2013-10-25 02:52:00,
2013-10-24 20:12:00,50.0,50.0,-100.00,North,359,-999.0,0.0,100,-99.99,,,-99.99,,2013-10-25 03:12:00,
2013-10-24 20:23:00,50.0,50.0,-100.00,North,359,-999.0,0.0,100,-99.99,,,-99.99,,2013-10-25 03:23:00,
2013-10-24 20:44:00,50.0,50.0,-100.00,North,0,-999.0,2.0,100,-99.99,,,-99.99,,2013-10-25 03:44:00,
2013-10-24 20:54:00,50.0,50.0,-100.00,North,0,-999.0,2.0,100,-99.99,,,-99.99,,2013-10-25 03:54:00,
2013-10-24 21:14:00,51.0,51.0,-100.00,NNE,21,-999.0,4.0,100,-99.99,,,-99.99,,2013-10-25 04:14:00,
2013-10-24 21:24:00,51.0,51.0,-100.00,NNE,21,-999.0,4.0,100,-99.99,,,-99.99,,2013-10-25 04:24:00,
2013-10-24 21:44:00,51.0,51.0,-100.00,NNE,31,-999.0,1.0,100,-99.99,,,-99.99,,2013-10-25 04:44:00,
2013-10-24 21:54:00,51.0,51.0,-100.00,NNE,31,-999.0,1.0,100,-99.99,,,-99.99,,2013-10-25 04:54:00,
2013-10-24 22:12:00,52.0,52.0,-100.00,NNE,29,-999.0,8.0,100,-99.99,,,-99.99,,2013-10-25 05:12:00,
2013-10-24 22:21:00,52.0,52.0,-100.00,NNE,29,-999.0,8.0,100,-99.99,,,-99.99,,2013-10-25 05:21:00,
2013-10-24 22:42:00,52.0,52.0,-100.00,NNE,13,-999.0,5.0,100,-99.99,,,0.00,,2013-10-25 05:42:00,
2013-10-24 22:51:00,52.0,52.0,-100.00,NNE,13,-999.0,5.0,100,-99.99,,,0.00,,2013-10-25 05:51:00,
2013-10-24 23:11:00,54.0,54.0,-100.00,North,11,-999.0,2.0,99,-99.99,,,-99.99,,2013-10-25 06:11:00,
2013-10-24 23:21:00,54.0,54.0,-100.00,North,11,-999.0,2.0,99,-99.99,,,-99.99,,2013-10-25 06:21:00,
2013-10-24 23:41:00,55.0,54.0,-100.00,NNE,19,-999.0,2.0,98,-99.99,,,-99.99,,2013-10-25 06:41:00,
2013-10-24 23:51:00,55.0,54.0,-100.00,NNE,19,-999.0,3.0,98,-99.99,,,-99.99,,2013-10-25 06:51:00,